Regional Weather Roundup
Issued by NWS

Home | Current Version | Previous Version | Graphics & Text | Print | Product List | Glossary On
Versions: 1 2 3 4 5 6 7 8 9 10 11 12 13 14 15 16 17 18 19 20 21 22 23 24 25 26 27 28 29 30 31 32 33 34 35 36 37 38 39 40 41 42 43 44 45 46 47 48 49 50
000
ASUS43 KFSD 300310
RWRSD

WEATHER ROUNDUP FOR SOUTH DAKOTA
NATIONAL WEATHER SERVICE SIOUX FALLS SD
1000 PM CDT SUN MAR 29 2015

NOTE: "FAIR" INDICATES FEW OR NO CLOUDS BELOW 12,000 FEET WITH NO
SIGNIFICANT WEATHER AND/OR OBSTRUCTIONS TO VISIBILITY.


SDZ001>005-009-010-012>017-300400-
NORTHWEST AND NORTH CENTRAL SOUTH DAKOTA

CITY           SKY/WX    TMP DP  RH WIND       PRES   REMARKS
BUFFALO          N/A     47  28  47 W6        29.95S
FAITH            N/A     49  25  39 W3        30.00F
MOBRIDGE       PTCLDY    42  30  62 CALM      29.97S
$$

SDZ012>016-024>037-041>051-057-063-072>074-300400-
SOUTHWEST AND SOUTH CENTRAL SOUTH DAKOTA

CITY           SKY/WX    TMP DP  RH WIND       PRES   REMARKS
RAPID CTY ARPT MOCLDY    45  27  49 CALM      30.06R
PIERRE         MOCLDY    49  29  46 S7        30.02S
CUSTER         CLOUDY    44  20  38 CALM      30.11R
ELLSWORTH AFB  CLOUDY    49  27  41 W3        30.05R
PHILIP         CLOUDY    49  23  36 W5        30.03F
PINE RIDGE     PTCLDY    42  27  55 CALM      30.08R
SPEARFISH      FAIR      45  27  49 SW9       30.06F
WINNER         FAIR      54  21  27 SW6       30.07S
$$

SDZ004>011-016>023-039-040-300400-
NORTHEAST SOUTH DAKOTA

CITY           SKY/WX    TMP DP  RH WIND       PRES   REMARKS
ABERDEEN       CLEAR     34  20  56 SW9       30.00S WCI  27
WATERTOWN      CLEAR     35  24  64 SW6       30.00F
SISSETON         N/A     42  28  57 W8        29.96S
$$

SDZ017-020-022-023-036>040-048>070-300400-
SOUTHEAST SOUTH DAKOTA

CITY           SKY/WX    TMP DP  RH WIND       PRES   REMARKS
SIOUX FALLS    CLEAR     36  22  56 CALM      30.05S
HURON          CLEAR     43  22  43 SW5       30.02F
CHAMBERLAIN    CLEAR     42  22  45 SW5       30.05S
MITCHELL       CLEAR     46  23  40 SW7       30.05F
YANKTON        CLEAR     50  19  29 SW9       30.09S
$$

ABBREVIATIONS USED IN REMARKS
   TC - TEMPERATURE IN CELSIUS
  WCI - WIND CHILL INDEX
   HX - HEAT INDEX
  VSB - VISIBILITY




USA.gov is the U.S. government's official web portal to all federal, state and local government web resources and services.